Sign In / Sign Up
 
 
Hot Season Regatta. Leg 2. 14/08 - 20/08



Race Date (UTC) # I place II place III place Track
Race6221 2017-08-20 23:23:37 2 Arroduco NICE BOAT
Race6220 2017-08-20 23:21:28 7 fastimprove bb1 HALF MOON
Race6219 2017-08-20 23:19:32 8 Barbablu/POLICE, I wish you short life and painful death. Honestly. And to your mother (WHORE) too. brgd. StipecoachCROATIA Toscana S.P.M
Race6218 2017-08-20 23:14:55 8 Arroduco Whammer Jammer TEMPLARIO
Race6217 2017-08-20 23:12:07 8 Toscana Tricolor Monica Brasil
Race6216 2017-08-20 23:10:46 3 Trinka phingston Elie
Race6215 2017-08-20 23:09:40 3 Tricolor Alessandra Azahar 1
Race6214 2017-08-20 23:06:57 8 Arroduco tymark bb1
Race6213 2017-08-20 23:03:27 8 Monica Brasil Rika tdd11
Race6212 2017-08-20 23:01:27 8 tymark ;) figufo
Race6211 2017-08-20 23:00:28 2 Jack Sparrow OffCourse
Race6210 2017-08-20 22:58:02 3 Toscana Tricolor Rika
Race6209 2017-08-20 22:56:39 3 bb1 Azahar 1 Rika
Race6208 2017-08-20 22:54:28 8 figufo beth Whammer Jammer
Race6207 2017-08-20 22:52:06 8 KB1 Monica Brasil OffCourse
Race6206 2017-08-20 22:50:10 2 lch TTR
Race6205 2017-08-20 22:46:53 8 figufo Whammer Jammer FWI
Race6204 2017-08-20 22:44:16 8 tymark ;) Barbablu/POLICE, I wish you short life and painful death. Honestly. And to your mother (WHORE) too. brgd. StipecoachCROATIA
Race6203 2017-08-20 22:42:48 2 Azahar 1 Rika
Race6202 2017-08-20 22:41:34 8 Avalon Whammer Jammer bb1
Race6201 2017-08-20 22:39:51 5 figufo OffCourse ObiWanBa
Race6200 2017-08-20 22:38:15 8 Barbablu/POLICE, I wish you short life and painful death. Honestly. And to your mother (WHORE) too. brgd. StipecoachCROATIA PRADA45 ;)
Race6199 2017-08-20 22:37:01 2 Azahar 1 Wind
Race6198 2017-08-20 22:35:54 8 Tricolor Vela Blanca FWI
Race6197 2017-08-20 22:34:42 8 Pangea Whammer Jammer Daniele
Race6196 2017-08-20 22:32:39 4 OffCourse figufo il Vmoro SRDN
Race6195 2017-08-20 22:30:46 8 Toninho Floripa Monica Brasil PRADA45
Race6194 2017-08-20 22:29:57 3 Vela Blanca bb1 OffCourse
Race6193 2017-08-20 22:26:17 8 Pangea Z Whammer Jammer
Race6192 2017-08-20 22:25:16 5 nicojap PRADA45 Sloopy
Race6191 2017-08-20 22:23:56 4 alk Elie Neto floripa
Race6190 2017-08-20 22:22:15 8 Monica Brasil OffCourse bb1
Race6189 2017-08-20 22:19:51 8 Whammer Jammer bumbulus TRICK
Race6188 2017-08-20 22:18:19 2 ObiWanBa DA_BOCA!!
Race6187 2017-08-20 22:17:19 3 No mercy Elie alk
Race6186 2017-08-20 22:15:14 8 Monica Brasil P.M.F. Remedy
Race6185 2017-08-20 22:12:14 8 Whammer Jammer Tricolor Toninho Floripa
Race6184 2017-08-20 22:11:08 4 TRICK ObiWanBa Wind
Race6183 2017-08-20 22:10:13 3 bb1 bumbulus Hichem
Race6182 2017-08-20 22:09:06 8 youppi03:50:40 alk misfit80
Race6181 2017-08-20 22:07:20 8 Maymone SRDN poppopop ELIOTLUCAS-5
Race6180 2017-08-20 22:04:33 8 Whammer Jammer MATADOR Toninho Floripa
Race6179 2017-08-20 22:02:41 6 Bariscanİstemi bb1 bumbulus
Race6178 2017-08-20 22:00:45 8 Remedy ELIOTLUCAS-5 poppopop
Race6177 2017-08-20 21:59:38 8 MATADOR phingston Knudson I
Race6176 2017-08-20 21:58:55 4 Ranger PRADA45 Federico
Race6175 2017-08-20 21:57:02 8 ZIP Tricolor Maymone SRDN
Race6174 2017-08-20 21:56:05 8 bb1 bumbulus Bariscanİstemi
Race6173 2017-08-20 21:54:40 8 youppi03:50:40 POL 77 Toninho Floripa
Race6172 2017-08-20 21:53:14 5 Moro di Venezia ELIOTLUCAS-5 phingston
Race6171 2017-08-20 21:52:26 8 BUMBA Barbablu/POLICE, I wish you short life and painful death. Honestly. And to your mother (WHORE) too. brgd. StipecoachCROATIA F18 ITA 100
Race6170 2017-08-20 21:50:57 7 ZIP Tricolor South
Race6169 2017-08-20 21:49:09 8 bb1 Monica Brasil bumbulus
Race6168 2017-08-20 21:47:16 8 POL 77 REFOLA youppi03:50:40
Race6167 2017-08-20 21:45:57 8 MANARA Knudson I tracina
Race6166 2017-08-20 21:44:15 8 ANLCTN BUMBA TRICK
Race6165 2017-08-20 21:42:39 8 Monica Brasil caneco Tricolor
Race6164 2017-08-20 21:41:17 8 Panz03:59:30 youppi03:50:40 Maymone SRDN
Race6163 2017-08-20 21:39:35 8 Formentor REFOLA POL 77
Race6162 2017-08-20 21:38:13 8 ANLCTN BUMBA MANARA
Race6161 2017-08-20 21:35:36 6 se ti pigghio Moro di Venezia Monica Brasil
Race6160 2017-08-20 21:34:00 8 Knudson I GonzaloLOTA bumbulus
Race6159 2017-08-20 21:32:00 8 tracina POL 77 ELIOTLUCAS-5
Race6158 2017-08-20 21:28:49 8 ANLCTN South BUMBA
Race6157 2017-08-20 21:27:41 8 Endeavour Elecuba - Antifascista Panz03:59:30
Race6156 2017-08-20 21:25:27 8 GonzaloLOTA Tricolor PRADA45
Race6155 2017-08-20 21:24:11 8 ANLCTN South fr4226
Race6154 2017-08-20 21:23:09 8 heidi trieste sector 3
Race6153 2017-08-20 21:21:33 8 Monica Brasil Maymone SRDN MANARA
Race6152 2017-08-20 21:19:57 8 Macarró Xiflat! Albarone Elecuba - Antifascista
Race6151 2017-08-20 21:17:42 7 ANLCTN Jbear Delf99
Race6150 2017-08-20 21:16:36 8 FANCULO BUMBA Aton
Race6149 2017-08-20 21:15:26 8 berksivrikaya Monica Brasil MANARA
Race6148 2017-08-20 21:12:56 8 Elecuba - Antifascista figufo yolo
Race6147 2017-08-20 21:11:44 8 Albarone s'keep cool kate koll
Race6146 2017-08-20 21:10:14 8 NotYet Autentic CAT star6546
Race6145 2017-08-20 21:09:05 8 Monica Brasil berksivrikaya BUMBA
Race6144 2017-08-20 21:07:50 8 RobaDaPazzi AKOSFREEDOM Chr98
Race6143 2017-08-20 21:06:58 8 Lucona POL 77 Aton
Race6142 2017-08-20 21:05:48 8 Elecuba - Antifascista Tricolor PONTEDEUME
Race6141 2017-08-20 21:04:45 8 Paride Marco figufo
Race6140 2017-08-20 21:03:29 8 yolo Polo le cash à l'eau star6546
Race6139 2017-08-20 21:02:30 8 falange Juggernaut tribord 06
Race6138 2017-08-20 21:01:21 8 RobaDaPazzi ELIOTLUCAS-5 Homer
Race6137 2017-08-20 21:00:17 8 NotYet Lucona guillo
Race6136 2017-08-20 20:58:43 8 PONTEDEUME Tricolor Mr honolulu
Race6135 2017-08-20 20:58:08 8 TRICK 210031 Paride
Race6134 2017-08-20 20:57:26 8 Options 409 globulo rosso RCLaser27
Race6133 2017-08-20 20:56:28 8 frdcarv figufo yolo
Race6132 2017-08-20 20:55:58 8 Moro di Venezia Alessio cho
Race6131 2017-08-20 20:54:48 8 RobaDaPazzi falange Juggernaut
Race6130 2017-08-20 20:52:35 8 Lucona NotYet Vela Blanca
Race6129 2017-08-20 20:51:31 8 Follow Me Polo le cash à l'eau tymark
Race6128 2017-08-20 20:50:21 8 карасик Options 409 Paride
Race6127 2017-08-20 20:49:52 8 bassotto juveMERDA RCLaser27
Race6126 2017-08-20 20:48:36 8 roadrunner. RobaDaPazzi TRICK
Race6125 2017-08-20 20:47:59 8 tribord 06 cho Knudson I
Race6124 2017-08-20 20:45:46 8 fr4226 NotYet ISC
Race6123 2017-08-20 20:45:15 8 Panambi BUMBA tymark
Race6122 2017-08-20 20:43:38 8 globulo rosso Follow Me Francesco